Simultaneous Nadir Overpasses (SNOs) Predictions

Prediction of SNOs between GOES-14 and NOAA-20 Satellite Orbit:

Table of predicted SNOs for the next 14.0 days since TLE Epoch: 12/5/2020
Index Date Time (GOES-14) GOES-14 Lat,Lon NOAA-20 Lat,Lon Distance(km) Time Diff (sec)
1 12/05/2020 20:17:06 0.03,-104.12 0.34,-102.84 147.02 80
2 12/07/2020 08:38:55 -0.05,-104.37 0.77,-108.13 427.66 80
3 12/08/2020 08:17:31 -0.04,-104.36 -0.23,-103.59 88.11 80
4 12/10/2020 20:20:41 0.04,-104.11 -0.03,-104.35 28.17 80
5 12/11/2020 20:04:37 0.03,-104.11 0.98, -99.82 488.80 80
6 12/13/2020 08:26:26 -0.05,-104.36 0.14,-105.10 84.92 80
7 12/14/2020 08:05:02 -0.03,-104.35 -0.87,-100.57 430.73 80
8 12/15/2020 20:26:58 0.05,-104.08 -0.33,-105.87 203.45 80
9 12/16/2020 20:10:54 0.04,-104.08 0.68,-101.34 313.21 80
10 12/18/2020 08:32:43 -0.06,-104.35 0.43,-106.62 258.60 80
